Simultaneous Nadir Overpasses (SNOs) Predictions

Prediction of SNOs between GOES-17 and NOAA-20 Satellite Orbit:

Table of predicted SNOs for the next 14.0 days since TLE Epoch: 10/28/2023
Index Date Time (GOES-17) GOES-17 Lat,Lon NOAA-20 Lat,Lon Distance(km) Time Diff (sec)
1 10/29/2023 08:39:04 0.00,-104.69 0.72,-108.02 378.83 80
2 10/30/2023 08:17:40 0.00,-104.69 -0.29,-103.49 136.98 80
3 10/31/2023 20:39:37 -0.00,-104.67 -0.96,-108.79 471.32 80
4 11/01/2023 20:23:34 -0.00,-104.67 0.06,-104.27 44.79 80
5 11/04/2023 08:26:41 0.00,-104.70 0.05,-105.03 37.76 80
6 11/05/2023 08:05:17 -0.00,-104.70 -0.97,-100.51 478.27 80
7 11/06/2023 20:27:15 -0.00,-104.67 -0.27,-105.81 129.69 80
8 11/07/2023 20:11:11 -0.00,-104.68 0.75,-101.28 386.72 80
9 11/09/2023 08:33:01 0.00,-104.72 0.42,-106.56 210.56 80
10 11/10/2023 08:11:37 0.00,-104.72 -0.60,-102.04 305.65 80
